Location: Lussas
(44.6119°N, 4.4726°E)
Time: 06:12:04
(UTC+00:00)

Lacrosse 5 - Pass Details

Date: 26 November 2020
Orbit: 713 x 726 km, 57.0° (Epoch: 16 January)

Event Time Altitude Azimuth Distance (km) Brightness Sun altitude
Exits shadow 05:23:06 - 228° (SW) 2,449 4.3 -15.7°
Reaches altitude 10° 05:23:48 10° 228° (SW) 2,184 4.0 -15.6°
Maximum altitude 05:28:50 88° 319° (NW) 718 1.8 -14.7°
Drops below altitude 10° 05:33:54 10° 48° (NE) 2,196 4.8 -13.8°
Sets 05:36:17 0° 49° (NE) 3,120 5.6 -13.4°
